Location: Cisewo
(53.3833°N, 14.9000°E)
Time: 12:04:40
(UTC+00:00)

Cosmos 2082 - Pass Details

Date: 18 April 2021
Orbit: 834 x 855 km, 71.0° (Epoch: 14 May)

Event Time Altitude Azimuth Distance (km) Brightness Sun altitude
Exits shadow 21:39:21 42° 209° (SSW) 1,182 4.1 -23.2°
Maximum altitude 21:41:22 89° 121° (ESE) 843 3.6 -23.3°
Drops below altitude 10° 21:47:02 10° 32° (NNE) 2,461 6.6 -23.6°
Sets 21:49:29 0° 33° (NNE) 3,401 7.4 -23.8°
